Volver al catálogo

SOLRAD 1

GREB

ActivoCienciaLEO
NORAD 46·PAYLOAD·🇺🇸 United States

Lanzado Jun 22, 1960 desde Cape Canaveral Space Force Station

Loading…

Próximos Pases (próximas 24 horas)

TLE

ActualizadoSource: Space-Track

Época: Sep 14, 2026, 14:52 UTC

1 00046U 60007B   26257.62010077  .00000739  00000-0  15234-3 0  9995
2 00046  66.6903 344.3847 0200257 227.6067 130.7949 14.54979999470012

Sigue SOLRAD 1 en tiempo real con AllMySat

Download on the App Store